User: anonymous   Login
Location: *
(46.3500°N, 10.9000°E)
Time: 01:31:05
(UTC+00:00)
Language:

Vanguard 2 - Orbit

View from above orbital plane
View from above orbital plane
View from above satellite
View from above satellite

Ground track
Ground track

The orbit data is extracted from the following two-line orbital elements,

1 00011U 59001A   21334.36101681  .00000324  00000-0  17428-3 0  9990
2 00011  32.8658 221.8789 1465919   8.9635 353.4380 11.85814540338017
Epoch (UTC): 30 November 2021 08:39:51
Eccentricity: 0.1465919
inclination: 32.8658°
perigee height: 554 km
apogee height: 2936 km
right ascension of ascending node: 221.8789°
argument of perigee: 8.9635°
revolutions per day: 11.85814540
mean anomaly at epoch: 353.4380°
orbit number at epoch: 33801

The dashed part of the orbit path shows where the satellite is in the earth's shadow,  

DLR